Weather History for KAYS - October, 2012

Change the Weather History Date:

Thursday, October 18, 2012

  Actual Average (KAMG) Record (KAMG)
Temperature  
Mean Temperature 68 °F 68 °F  
Max Temperature 82 °F 79 °F 90 °F (1972)
Min Temperature 55 °F 57 °F 34 °F (1954)
Degree Days  
Heating Degree Days 0 2  
Month to date heating degree days 14  
Since 1 July heating degree days 16  
Cooling Degree Days 4 4  
Month to date cooling degree days 113  
Year to date cooling degree days 2383  
Growing Degree Days 18 (Base 50)    
Moisture  
Dew Point 63 °F    
Average Humidity 85    
Maximum Humidity 100    
Minimum Humidity 58    
Precipitation  
Precipitation 0.00 in 0.10 in 2.72 in (1950)
Month to date precipitation 1.87  
Year to date precipitation 39.72  
Snow  
Snow 0.00 in 0.00 in 0.00 in ()
Month to date snowfall 0.0  
Since 1 July snowfall 0.0  
Since 1 September snowfall 0.0  
Snow Depth -    
Sea Level Pressure  
Sea Level Pressure 29.84 in    
Wind  
Wind Speed 1 mph (SW)    
Max Wind Speed 10 mph    
Max Gust Speed -    
Visibility 8 miles    
Events      
T = Trace of Precipitation, MM = Missing Value Source: NWS Daily Summary

Daily Weather History Graph

Daily Weather History Graph

Search for Another Location

Airport or City:

Trip Planner

Search our weather history database for the weather conditions in past years. The results will help you decide how hot, cold, wet, or windy it might be!

Date:

Astronomy

Oct. 18, 2012 Rise Set
Actual Time 7:34 AM EDT 6:53 PM EDT
Civil Twilight 7:10 AM EDT 7:18 PM EDT
Nautical Twilight 6:42 AM EDT 7:46 PM EDT
Astronomical Twilight 6:13 AM EDT 8:14 PM EDT
Moon 11:02 AM EDT (10/18) 9:40 PM EDT (10/18)
Length of Visible Light 12h 08m
Length of Day
11h 19m
Waxing Crescent, 14% of the Moon is Illuminated
Oct 18
Waxing Crescent
Oct 21
First Quarter
Oct 29
Full
Nov 6
Last Quarter
Nov 13
New

Hourly Weather History & Observations

Time (EDT) Temp. Heat Index Dew Point Humidity Pressure Visibility Wind Dir Wind Speed Gust Speed Precip Events Conditions
12:15 AM 59.0 °F - 59.0 °F 100% 29.88 in 5.0 mi Calm Calm - N/A   Clear
12:35 AM 59.0 °F - 59.0 °F 100% 29.87 in 2.0 mi Calm Calm - N/A   Clear
12:55 AM 59.0 °F - 57.2 °F 94% 29.87 in 7.0 mi Calm Calm - N/A   Clear
1:15 AM 57.2 °F - 57.2 °F 100% 29.86 in 7.0 mi Calm Calm - N/A   Clear
1:35 AM 57.2 °F - 57.2 °F 100% 29.86 in 4.0 mi Calm Calm - N/A   Clear
1:55 AM 57.2 °F - 57.2 °F 100% 29.84 in 2.5 mi Calm Calm - N/A   Clear
2:15 AM 57.2 °F - 57.2 °F 100% 29.84 in 5.0 mi Calm Calm - N/A   Scattered Clouds
2:35 AM 57.2 °F - 57.2 °F 100% 29.84 in 5.0 mi Calm Calm - N/A   Scattered Clouds
2:55 AM 57.2 °F - 57.2 °F 100% 29.84 in 7.0 mi Calm Calm - N/A   Mostly Cloudy
3:15 AM 59.0 °F - 57.2 °F 94% 29.84 in 7.0 mi Calm Calm - N/A   Mostly Cloudy
3:35 AM 59.0 °F - 59.0 °F 100% 29.84 in 5.0 mi Calm Calm - N/A   Clear
3:55 AM 57.2 °F - 57.2 °F 100% 29.83 in 7.0 mi Calm Calm - N/A   Clear
4:15 AM 57.2 °F - 57.2 °F 100% 29.83 in 5.0 mi Calm Calm - N/A   Clear
4:35 AM 57.2 °F - 57.2 °F 100% 29.83 in 4.0 mi Calm Calm - N/A   Clear
4:55 AM 57.2 °F - 57.2 °F 100% 29.82 in 4.0 mi Calm Calm - N/A   Clear
5:15 AM 57.2 °F - 57.2 °F 100% 29.83 in 5.0 mi Calm Calm - N/A   Clear
5:55 AM 55.4 °F - 55.4 °F 100% 29.84 in 5.0 mi Calm Calm - N/A   Clear
6:15 AM 57.2 °F - 57.2 °F 100% 29.84 in 5.0 mi Calm Calm - N/A   Scattered Clouds
6:35 AM 57.2 °F - 55.4 °F 94% 29.85 in 7.0 mi Calm Calm - N/A   Mostly Cloudy
6:55 AM 57.2 °F - 57.2 °F 100% 29.87 in 7.0 mi Calm Calm - N/A   Overcast
7:15 AM 60.8 °F - 59.0 °F 94% 29.86 in 7.0 mi Calm Calm - N/A   Overcast
7:35 AM 60.8 °F - 60.8 °F 100% 29.87 in 7.0 mi Calm Calm - N/A   Overcast
7:55 AM 60.8 °F - 60.8 °F 100% 29.86 in 0.5 mi Calm Calm - N/A   Overcast
8:15 AM 62.6 °F - 62.6 °F 100% 29.87 in 0.5 mi Calm Calm - N/A   Overcast
8:35 AM 64.4 °F - 64.4 °F 100% 29.87 in 0.2 mi Calm Calm - N/A   Overcast
8:55 AM 64.4 °F - 64.4 °F 100% 29.87 in 0.5 mi Calm Calm - N/A   Overcast
9:35 AM 66.2 °F - 66.2 °F 100% 29.88 in 0.5 mi SSW 3.5 mph - N/A   Overcast
10:15 AM 66.2 °F - 66.2 °F 100% 29.87 in 1.0 mi Calm Calm - N/A   Overcast
10:35 AM 68.0 °F - 66.2 °F 94% 29.88 in 3.0 mi SSW 4.6 mph - N/A   Overcast
11:15 AM 69.8 °F - 66.2 °F 88% 29.88 in 10.0 mi SW 6.9 mph - N/A   Overcast
11:35 AM 69.8 °F - 66.2 °F 88% 29.88 in 10.0 mi SW 4.6 mph - N/A   Overcast
11:55 AM 73.4 °F - 68.0 °F 83% 29.87 in 10.0 mi WSW 6.9 mph - N/A   Overcast
12:15 PM 73.4 °F - 66.2 °F 78% 29.86 in 10.0 mi SW 6.9 mph - N/A   Scattered Clouds
12:35 PM 77.0 °F - 66.2 °F 69% 29.85 in 10.0 mi SW 4.6 mph - N/A   Clear
12:55 PM 78.8 °F - 66.2 °F 65% 29.84 in 10.0 mi South 8.1 mph - N/A   Clear
1:15 PM 78.8 °F - 64.4 °F 61% 29.84 in 10.0 mi SSW 4.6 mph - N/A   Clear
1:35 PM 80.6 °F 82.7 °F 66.2 °F 61% 29.82 in 10.0 mi WSW 6.9 mph - N/A   Clear
1:55 PM 80.6 °F 82.3 °F 64.4 °F 58% 29.80 in 10.0 mi SSW 4.6 mph - N/A   Clear
2:35 PM 82.4 °F 84.6 °F 66.2 °F 58% 29.79 in 10.0 mi SW 9.2 mph - N/A   Clear
2:55 PM 82.4 °F 84.6 °F 66.2 °F 58% 29.79 in 10.0 mi SSW 9.2 mph - N/A   Clear
3:15 PM 80.6 °F 82.7 °F 66.2 °F 61% 29.79 in 10.0 mi SSW 10.4 mph - N/A   Scattered Clouds
3:35 PM 80.6 °F 82.7 °F 66.2 °F 61% 29.79 in 10.0 mi SW 9.2 mph - N/A   Clear
3:55 PM 82.4 °F 84.6 °F 66.2 °F 58% 29.79 in 10.0 mi SW 8.1 mph - N/A   Clear
4:15 PM 80.6 °F 82.7 °F 66.2 °F 61% 29.79 in 10.0 mi WSW 9.2 mph - N/A   Clear
4:35 PM 80.6 °F 82.3 °F 64.4 °F 58% 29.79 in 10.0 mi WSW 6.9 mph - N/A   Clear
4:55 PM 80.6 °F 82.3 °F 64.4 °F 58% 29.79 in 10.0 mi WSW 5.8 mph - N/A   Clear
5:15 PM 80.6 °F 82.7 °F 66.2 °F 61% 29.79 in 10.0 mi SW 4.6 mph - N/A   Clear
5:35 PM 80.6 °F 82.7 °F 66.2 °F 61% 29.79 in 10.0 mi Calm Calm - N/A   Clear
5:55 PM 78.8 °F - 66.2 °F 65% 29.79 in 10.0 mi Calm Calm - N/A   Clear
6:15 PM 78.8 °F - 68.0 °F 69% 29.79 in 10.0 mi Calm Calm - N/A   Clear
6:35 PM 77.0 °F - 68.0 °F 74% 29.80 in 10.0 mi Calm Calm - N/A   Clear
6:55 PM 75.2 °F - 68.0 °F 78% 29.81 in 10.0 mi Calm Calm - N/A   Scattered Clouds
7:15 PM 75.2 °F - 66.2 °F 73% 29.82 in 10.0 mi WSW 3.5 mph - N/A   Scattered Clouds
7:35 PM 73.4 °F - 66.2 °F 78% 29.82 in 10.0 mi WSW 3.5 mph - N/A   Scattered Clouds
7:55 PM 73.4 °F - 68.0 °F 83% 29.81 in 10.0 mi Calm Calm - N/A   Scattered Clouds
8:15 PM 73.4 °F - 66.2 °F 78% 29.82 in 10.0 mi Calm Calm - N/A   Mostly Cloudy
8:35 PM 73.4 °F - 66.2 °F 78% 29.83 in 10.0 mi Calm Calm - N/A   Mostly Cloudy
8:55 PM 71.6 °F - 68.0 °F 88% 29.83 in 10.0 mi Calm Calm - N/A   Mostly Cloudy
9:15 PM 71.6 °F - 68.0 °F 88% 29.84 in 10.0 mi Calm Calm - N/A   Overcast
9:35 PM 71.6 °F - 68.0 °F 88% 29.84 in 10.0 mi Calm Calm - N/A   Overcast
9:55 PM 71.6 °F - 68.0 °F 88% 29.84 in 10.0 mi Calm Calm - N/A   Overcast
10:15 PM 71.6 °F - 68.0 °F 88% 29.84 in 10.0 mi Calm Calm - N/A   Overcast
10:35 PM 69.8 °F - 68.0 °F 94% 29.84 in 10.0 mi South 4.6 mph - N/A   Overcast
10:55 PM 71.6 °F - 66.2 °F 83% 29.84 in 10.0 mi Calm Calm - N/A   Overcast
11:15 PM 69.8 °F - 66.2 °F 88% 29.84 in 10.0 mi Calm Calm - N/A   Overcast
11:35 PM 69.8 °F - 66.2 °F 88% 29.83 in 10.0 mi Calm Calm - N/A   Overcast
11:55 PM 69.8 °F - 66.2 °F 88% 29.83 in 10.0 mi Calm Calm - N/A   Overcast